Content
SEND FEEDBACK

Daily
Averages
Monthly
Summary
United States of America

ST. LOUIS, MISSOURI


Home > North America > United States > Missouri
Elevation: 163 meters     Latitude: 38 45N     Longitude: 090 22W

WEATHER
 
SELECT A DAY
Number of Records: 199,751;   Date Range: 1/1/95 - 10/24/14
 
SHARE

PRINT THIS DATA

[ ← Previous Day ]
WEATHER ALMANAC - JANUARY 4, 2013
[ Next Day → ]
[ °C ]   °F
Weather ElementAverageHighLow
Temperature28.7 °F41 °F (2:54 pm)19.9 °F (2:54 am)
Dewpoint19.6 °F23 °F (11:54 am)16 °F (7:54 am)
Humidity70.8 %89 % (2:54 am)43 % (2:54 pm)
Barometer30.40 in30.46 in (9:54 am)30.34 in (11:54 pm)
Wind Speed4.2 mph15 mph (1:54 pm)
Wind Gust20.7 mph (1:54 pm)
Weather ElementAverage
Visibility10 mi
Wind DirectionESE (125.7 °)

Weather ElementTotal
Precipitation---
Heating Degree Days34.6 (Base 65)
Averaged from 23 records on January 4, 2013
WEATHER CONDITIONS BREAKOUT
WIND DIRECTION BREAKOUT
WEATHER BY HOUR - JANUARY 4, 2013
[ °C ]   °F
Local TimeTemperatureDewpointHumidityBarometerVisibilityWind DirectionWind SpeedGust SpeedPrecipitationEventsConditions
1:54 AM21.9 °F18.0 °F85 %30.41 in10.0 miCalmClear
2:54 AM19.9 °F17.1 °F89 %30.42 in10.0 miCalmClear
3:54 AM21.0 °F17.1 °F85 %30.43 in10.0 miCalmMostly Cloudy
4:54 AM26.1 °F21.0 °F81 %30.43 in10.0 miWest (260°)3.5 mphOvercast
5:54 AM25.0 °F19.9 °F81 %30.43 in10.0 miWest (280°)3.5 mphMostly Cloudy
6:54 AM23.0 °F18.0 °F81 %30.43 in10.0 miCalmMostly Cloudy
7:54 AM21.0 °F16.0 °F81 %30.45 in10.0 miWSW (250°)4.6 mphPartly Cloudy
8:54 AM28.9 °F21.9 °F75 %30.45 in10.0 miSW (230°)6.9 mphClear
9:54 AM32.0 °F21.9 °F66 %30.46 in10.0 miSW (230°)10.4 mphClear
10:54 AM34.0 °F21.9 °F61 %30.45 in10.0 miWest (260°)8.1 mphClear
11:54 AM37.0 °F23.0 °F57 %30.43 in10.0 miWSW (250°)12.7 mph19.6 mphClear
12:54 PM37.9 °F21.9 °F53 %30.39 in10.0 miSW (230°)11.5 mphClear
1:54 PM39.9 °F21.0 °F47 %30.39 in10.0 miWSW (240°)15.0 mph20.7 mphClear
2:54 PM41.0 °F19.9 °F43 %30.38 in10.0 miSW (230°)6.9 mphClear
3:54 PM39.9 °F19.0 °F43 %30.37 in10.0 miWSW (240°)10.4 mphClear
4:54 PM35.1 °F19.9 °F54 %30.35 in10.0 miCalmClear
5:54 PM30.0 °F19.9 °F66 %30.35 in10.0 miSouth (190°)3.5 mphClear
6:54 PM28.9 °F19.9 °F69 %30.36 in10.0 miCalmClear
7:54 PM27.0 °F19.0 °F72 %30.36 in10.0 miCalmClear
8:54 PM25.0 °F21.0 °F85 %30.35 in10.0 miCalmClear
9:54 PM21.9 °F18.0 °F85 %30.35 in10.0 miCalmClear
10:54 PM21.9 °F18.0 °F85 %30.35 in10.0 miCalmClear
11:54 PM21.9 °F18.0 °F85 %30.34 in10.0 miCalmClear
Hourly data recorded from KSUS, located miles away from St. Louis, Missouri







STORIES FROM OUR PARTNERS